Regional Weather Roundup
Issued by NWS

Home | Current Version | Previous Version | Text Only | Print | Product List | Glossary On
Versions: 1 2 3 4 5 6 7 8 9 10 11 12 13 14 15 16 17 18 19 20 21 22 23 24 25 26 27 28
000
ASUS44 KLIX 230606
RWRLA
LOUISIANA WEATHER ROUNDUP
NATIONAL WEATHER SERVICE NEW ORLEANS LA
100 AM CDT MON APR 23 2018

NOTE: "FAIR" INDICATES FEW OR NO CLOUDS BELOW 12,000 FEET WITH NO
      SIGNIFICANT WEATHER AND/OR OBSTRUCTIONS TO VISIBILITY.
      SKY/WX - SKY CONDITION AND SIGNIFICANT WEATHER.
      TMP - AIR TEMPERATURE.    DP   - DEWPOINT TEMPERATURE.
      RH  - RELATIVE HUMIDITY.  PRES - PRESSURE.
      HX  - HEAT INDEX.         WCI  - WIND CHILL INDEX.

*  THESE STATIONS ARE NOT NWS OR FAA STATIONS AND ARE NOT UNDER
   NWS QUALITY CONTROL.

LAZ040-048-061>063-065-066-069-230700-
SOUTHEAST LOUISIANA

CITY           SKY/WX    TMP DP  RH WIND       PRES   REMARKS
N.O. INTL ARPT FAIR      63  54  72 NW13G23   29.97S
6HR MIN TEMP:  62; 6HR MAX TEMP:  77;

N.O. LAKEFRONT FAIR      64  56  75 NW21      29.97S
6HR MIN TEMP:  64; 6HR MAX TEMP:  73;

N.O. DOWNTOWN* FAIR      64  53  67 NW8G16    29.98S
6HR MIN TEMP:  64; 6HR MAX TEMP:  75;

RESERVE*       FAIR      59  54  82 N5        29.98S
6HR MIN TEMP:  59; 6HR MAX TEMP:  77;

SLIDELL        FAIR      61  55  81 VRB6      29.96R
6HR MIN TEMP:  61; 6HR MAX TEMP:  76;

BATON ROUGE    FAIR      56  50  80 CALM      29.98F
6HR MIN TEMP:  56; 6HR MAX TEMP:  66;

BOOTHVILLE     FAIR      66  62  87 NW12      29.95S FOG
6HR MIN TEMP:  66; 6HR MAX TEMP:  73;

BELLE CHASSE   FAIR      62  57  83 VRB6      29.96S
6HR MIN TEMP:  62; 6HR MAX TEMP:  76;

BOGALUSA*      MOCLDY    61  56  83 NW3       29.96F
6HR MIN TEMP:  61; 6HR MAX TEMP:  75; 6HR PCP:  0.01;

GALLIANO*      FAIR      60  53  77 NW8       29.97S
6HR MIN TEMP:  60; 6HR MAX TEMP:  74;

NEW ROADS*     FAIR      54  50  86 CALM      29.99S
6HR MIN TEMP:  54; 6HR MAX TEMP:  64;

GONZALES*      FAIR      56  52  86 CALM      29.98S
6HR MIN TEMP:  56; 6HR MAX TEMP:  72;

HAMMOND*       FAIR      55  52  88 NW6       29.97S
HOUMA*         FAIR      59  54  82 NW6       29.98S
6HR MIN TEMP:  59; 6HR MAX TEMP:  74;

PORT FOURCHON* CLEAR     64  57  77 NW15      29.98R

$$

LAZ041-044-053-054-230700-
SOUTHWEST LOUISIANA

CITY           SKY/WX    TMP DP  RH WIND       PRES   REMARKS
LAKE CHARLES   FAIR      58  54  86 N6        30.00R
6HR MIN TEMP:  57; 6HR MAX TEMP:  68;

LAFAYETTE      FAIR      57  54  89 N5        29.99F
6HR MIN TEMP:  57; 6HR MAX TEMP:  66;

PATTERSON      FAIR      59  56  89 N3        30.00R
6HR MIN TEMP:  58; 6HR MAX TEMP:  72;

SALT POINT       N/A    N/A N/A N/A CALM      29.98S
NEW IBERIA     MOCLDY    58  53  84 N6        30.00S
6HR MIN TEMP:  56; 6HR MAX TEMP:  67; 6HR PCP: TRACE;

CHENAULT AIRPK FAIR      56  54  91 N3        30.01S
6HR MIN TEMP:  56; 6HR MAX TEMP:  67;


$$

LAZ027-028-230700-
CENTRAL LOUISIANA

CITY           SKY/WX    TMP DP  RH WIND       PRES   REMARKS
FORT POLK      FAIR      53  52  96 CALM      29.99S
6HR MIN TEMP:  52; 6HR MAX TEMP:  64;

ALEXANDRIA INT FAIR      52  49  89 NW5       29.97F
6HR MIN TEMP:  51; 6HR MAX TEMP:  62;

ALEXANDRIA     FOG       48  48 100 CALM      29.97F VSB 3/4
6HR MIN TEMP:  48; 6HR MAX TEMP:  61;


$$

LAZ001-002-230700-
NORTHWEST LOUISIANA

CITY           SKY/WX    TMP DP  RH WIND       PRES   REMARKS
SHREVEPORT     FAIR      52  50  93 NW7       29.98S
6HR MIN TEMP:  52; 6HR MAX TEMP:  61;

BARKSDALE AFB  FAIR      52  49  89 NW8       29.97F
6HR MIN TEMP:  52; 6HR MAX TEMP:  60;

DTN SHREVEPORT FAIR      53  49  86 W5        29.98S
6HR MIN TEMP:  53; 6HR MAX TEMP:  61;


$$

LAZ014-016-230700-
NORTHEAST LOUISIANA

CITY           SKY/WX    TMP DP  RH WIND       PRES   REMARKS
MONROE         FAIR      53  49  86 W9        29.95F
6HR MIN TEMP:  53; 6HR MAX TEMP:  61;

TALLULAH       CLOUDY    57  52  83 VRB5      29.94F
6HR MIN TEMP:  57; 6HR MAX TEMP:  66;


$$





USA.gov is the U.S. government's official web portal to all federal, state and local government web resources and services.